User: anonymous   Login
Location: Fort Wayne
(41.1310°N, 85.1290°W)
Time: 02:28:50
(UTC-04:00)
Language:

Cosmos 2227 Rocket - Orbit

View from above orbital plane
View from above orbital plane
View from above satellite
View from above satellite

Ground track
Ground track

The orbit data is extracted from the following two-line orbital elements,

1 22285U 92093B   16207.14177436 -.00000251  00000-0 -10492-3 0  9990
2 22285  71.0209 178.3342 0006699 268.5283  91.5072 14.14999135216270
Epoch (UTC): 25 July 2016 03:24:09
Eccentricity: 0.0006699
inclination: 71.0209°
perigee height: 837 km
apogee height: 847 km
right ascension of ascending node: 178.3342°
argument of perigee: 268.5283°
revolutions per day: 14.14999135
mean anomaly at epoch: 91.5072°
orbit number at epoch: 21627

The dashed part of the orbit path shows where the satellite is in the earth's shadow,  

DLR